This is the latest recevied weather packets stored in our database for station/object DM3DP. If no packets are shown the sender has not sent any weather packets the latest 10 day(s).
| Time | Temp. | Humidity | Pressure | Rain* | Wind** | Luminosity | Snow |
|---|---|---|---|---|---|---|---|
| 1777805636 | 21.67° C | 50% | 1010.3 hPa | 0 mm | - | 225 W/m² | - |
| 1777805306 | 21.67° C | 49% | 1010.3 hPa | 0 mm | - | 146 W/m² | - |
| 1777804976 | 21.67° C | 48% | 1010.3 hPa | 0 mm | - | 164 W/m² | - |
| 1777804646 | 21.67° C | 48% | 1010.3 hPa | 0 mm | - | 148 W/m² | - |
| 1777804316 | 21.67° C | 48% | 1010.3 hPa | 0 mm | - | 154 W/m² | - |
| 1777803986 | 22.22° C | 47% | 1010.2 hPa | 0 mm | - | 143 W/m² | - |
| 1777803656 | 22.78° C | 48% | 1010.2 hPa | 0 mm | - | 123 W/m² | - |
| 1777803327 | 22.78° C | 49% | 1010.2 hPa | 0 mm | - | 350 W/m² | - |
| 1777802996 | 22.22° C | 49% | 1010.3 hPa | 0 mm | - | 432 W/m² | - |
| 1777802666 | 22.22° C | 48% | 1010.3 hPa | 0 mm | - | 612 W/m² | - |
| 1777802336 | 22.22° C | 48% | 1010.3 hPa | 0 mm | - | 355 W/m² | - |
| 1777802006 | 21.67° C | 50% | 1010.3 hPa | 0 mm | - | 459 W/m² | - |
| 1777801676 | 21.11° C | 50% | 1010.3 hPa | 0 mm | - | 683 W/m² | - |
| 1777801346 | 21.11° C | 50% | 1010.3 hPa | 0 mm | - | 302 W/m² | - |
| 1777801016 | 21.11° C | 48% | 1010.3 hPa | 0 mm | - | 368 W/m² | - |
| 1777800686 | 21.11° C | 48% | 1010.3 hPa | 0 mm | - | 259 W/m² | - |
| 1777800357 | 21.67° C | 48% | 1010.4 hPa | 0 mm | - | 202 W/m² | - |
| 1777800027 | 22.22° C | 48% | 1010.5 hPa | 0 mm | - | 589 W/m² | - |
| 1777799696 | 21.67° C | 50% | 1010.3 hPa | 0 mm | - | 879 W/m² | - |
| 1777799366 | 21.67° C | 50% | 1010.4 hPa | 0 mm | - | 875 W/m² | - |
| 1777799036 | 21.67° C | 50% | 1010.4 hPa | 0 mm | - | 855 W/m² | - |
| 1777798706 | 21.11° C | 51% | 1010.5 hPa | 0 mm | - | 883 W/m² | - |
| 1777798376 | 21.11° C | 52% | 1010.5 hPa | 0 mm | - | 899 W/m² | - |
| 1777798047 | 21.11° C | 52% | 1010.4 hPa | 0 mm | - | 809 W/m² | - |
| 1777797716 | 20.56° C | 53% | 1010.4 hPa | 0 mm | - | 730 W/m² | - |
* Rain latest hour (hover to see other rain measurements)
** Current wind speed in m/s (hover to see current wind gust speed)